MALLIGYONG-1

导读

MALLIGYONG-1 是一颗由中国研制的遥感卫星,主要用于环境监测、资源调查和灾害预警等领域。该卫星具备高分辨率成像能力,能够获取地表详细信息,为农业、林业、城市规划等提供数据支持。卫星采用先进的光电技术和数据处理系统,具有较高的观测精度和稳定性。MALLIGYONG-1 的成功发射和运行,提升了我国在遥感应用方面的技术水平和综合能力,为国家可持续发展战略提供了有力支撑。

Basic Information
目录编号:
58400
目录名称:
MALLIGYONG-1
国际标识:
2023-179A
轨道中心:
EARTH
卫星名称:
MALLIGYONG-1
卫星全名:
--
卫星状态:
在轨 (已飞行966 天)
发射日期:
2023-11-21 UTC
国别 :
(KP)
星等 :
--
Orbit Information
数据来源 国际轨道数据 AOE轨道数据
星历时间 2026-07-14T04:22:51+0800
10小时前
查看轨道信息
2026-07-13T01:00:00+0800
1天前
查看轨道信息
半长轴 6875.572km 6875.567km
偏心率 0.0006782 0.0006918
轨道倾角 97.298° 97.299°
近地点辐角 301.581° 308.184°
升交点赤经 75.642° 74.534°
平近点角 58.477° 281.649°
近地点 492.771km 492.673km
远地点 502.099km 502.187km
周期 94.563分钟 94.563分钟
每日圈数 15.227884 15.227902
Detailed Information
使用方式:
暂无
2D Orbit Map
3D Orbit Map
Orbit Altitude Analysis Chart
Orbit Inclination Analysis Chart
Orbit Comprehensive Analysis Chart
View Comprehensive Chart